Theta_e
259 259 259 259 259 258 258 258 257 258 258 257 257 257 257 257 257 256 256 257 256 257 257 257 257 257 258 259 259 260 261 262 262 262 262 262 261 260 260 260 258 256 256 259 262 261 261 262 263 261 263 262 263 264 266 268 266 267 267 267 267 267 270
258 258 258 258 258 258 258 258 258 257 257 257 256 256 257 256 256 256 255 256 255 256 256 257 256 256 257 259 259 259 260 261 261 261 260 260 260 260 259 260 258 257 256 255 259 259 261 261 263 260 263 262 262 263 264 264 265 266 267 266 266 267 267
258 258 258 257 257 257 257 257 257 257 257 257 256 256 256 256 256 255 255 255 255 255 256 256 256 256 257 258 258 259 260 260 260 260 260 259 260 259 259 259 259 257 255 255 256 259 258 260 260 260 260 262 262 263 264 263 264 265 265 266 266 266 266
258 257 257 256 256 256 256 257 257 257 257 257 257 256 256 256 256 255 255 255 255 255 256 256 256 256 257 258 258 259 259 260 260 260 259 259 259 259 258 259 259 258 257 256 255 257 258 259 259 260 261 262 262 262 263 263 264 265 264 265 265 265 265
257 257 257 256 256 256 256 257 257 257 256 257 257 256 256 256 256 255 255 255 256 256 256 256 256 257 258 258 258 258 259 259 259 259 258 258 258 258 258 258 258 257 257 256 255 256 258 259 259 260 260 261 261 261 262 263 263 263 264 264 265 265 265
256 257 256 256 256 256 256 257 257 256 256 256 256 256 256 256 255 255 255 256 256 256 257 257 257 257 258 258 258 258 258 258 257 257 257 257 257 257 257 257 257 257 256 256 256 256 256 258 257 258 259 261 261 260 260 261 262 263 263 263 263 264 264
256 256 256 256 257 256 256 256 256 256 256 256 256 256 255 255 255 255 255 256 257 257 258 258 258 258 259 259 259 258 258 258 257 257 257 257 257 257 257 256 256 256 256 255 255 255 256 256 258 258 258 261 262 261 261 259 260 260 262 262 262 262 263
256 256 256 256 256 257 257 256 256 256 256 256 255 255 254 254 254 254 255 256 257 258 258 258 259 260 260 260 259 258 258 258 257 258 257 257 257 257 256 255 256 255 255 255 255 255 255 256 257 258 260 261 261 259 260 260 259 258 259 260 262 262 261
256 256 256 256 256 256 256 256 256 256 255 255 254 254 254 254 254 255 255 256 257 259 260 260 261 261 261 260 260 259 259 259 258 257 256 257 257 256 255 255 255 255 255 255 255 254 255 256 256 257 258 258 258 257 257 259 260 259 260 260 260 261 262
256 255 255 255 255 255 255 255 255 256 255 255 255 254 254 255 255 256 256 257 258 259 260 261 261 261 260 259 259 259 259 258 258 258 257 257 256 256 255 255 254 254 254 254 253 254 254 254 255 256 256 256 257 258 259 258 259 258 259 259 259 260 261
255 255 255 255 254 254 255 255 255 255 259 262 263 261 260 260 260 260 260 260 260 260 260 261 261 260 259 259 258 258 258 258 257 257 257 257 257 257 255 254 253 253 254 253 253 254 254 254 254 255 256 256 257 257 257 257 258 258 258 257 256 255 258
255 255 255 255 255 254 254 254 255 258 261 263 264 263 261 261 261 261 261 261 261 260 260 260 259 259 259 258 257 256 256 256 256 256 256 256 256 256 256 256 255 253 253 253 253 253 254 254 254 255 256 256 256 256 257 257 258 257 257 256 256 256 255
255 255 255 254 254 253 254 254 254 258 261 263 264 265 263 261 261 261 261 261 261 260 260 259 259 258 258 258 257 257 256 255 255 255 256 255 255 255 255 256 256 256 255 255 254 253 253 254 254 254 255 256 256 257 256 257 257 257 257 256 255 255 256
255 255 254 254 253 253 253 253 254 257 261 262 264 265 265 262 261 261 260 260 260 259 259 258 258 257 257 257 257 257 256 255 255 254 254 253 253 253 254 254 255 255 255 256 254 254 253 254 255 254 255 256 257 256 256 256 256 256 255 255 254 256 256
254 254 254 253 253 253 253 253 254 258 261 263 264 265 264 261 260 259 259 259 259 259 258 258 257 257 256 256 256 256 256 255 254 253 253 253 253 253 253 253 253 254 254 255 255 255 254 255 256 256 256 257 258 258 258 257 256 256 255 255 256 256 257
255 254 254 254 253 252 252 253 254 258 260 262 263 263 260 259 258 258 258 257 258 258 258 258 257 257 256 256 256 256 256 256 255 253 252 252 252 253 253 254 255 257 258 256 255 255 255 256 257 259 258 259 259 259 259 258 257 256 255 255 254 254 256
254 254 254 253 253 252 252 252 253 255 258 260 262 261 257 257 257 257 257 257 257 257 257 257 257 256 256 256 255 255 256 256 255 253 252 252 252 252 253 253 255 257 259 262 263 263 263 263 261 260 259 258 260 259 258 255 253 253 254 253 251 253 254
254 254 254 253 253 253 252 252 253 253 255 259 260 259 256 256 256 255 256 256 256 257 257 257 257 256 256 255 255 255 255 256 255 253 253 252 251 251 252 253 255 255 256 258 258 258 258 259 259 258 258 260 260 257 256 253 251 252 253 251 252 251 253
253 253 254 253 253 253 252 252 252 253 253 257 260 258 256 256 256 255 255 256 256 257 257 257 256 256 256 255 255 255 258 259 256 255 254 254 253 253 253 254 255 254 254 255 255 255 255 255 256 256 255 255 255 255 255 254 252 253 252 251 252 252 253
253 252 252 253 253 252 252 252 252 252 253 256 259 260 256 255 254 253 253 254 254 254 255 255 255 256 255 255 255 255 257 258 257 255 254 254 253 253 252 255 255 256 256 255 255 255 255 254 255 255 254 254 254 254 254 254 253 253 253 252 252 252 252
251 251 251 252 252 252 252 252 252 252 253 253 254 257 256 255 254 254 254 254 254 254 254 254 254 255 255 255 255 254 255 259 260 257 256 255 254 254 255 257 255 255 256 255 255 254 254 254 254 254 254 254 254 254 254 254 254 254 254 253 252 252 252
250 250 251 252 252 252 252 253 252 252 253 253 254 257 255 254 253 253 253 252 252 253 253 253 254 254 254 254 254 254 257 259 259 257 256 255 257 257 257 255 255 255 255 254 254 254 254 254 254 254 254 254 254 254 254 254 253 253 253 254 254 253 252
250 251 251 252 253 254 254 254 254 253 252 253 254 254 254 254 253 254 253 252 251 252 252 253 253 254 254 254 254 254 256 256 255 254 254 255 255 255 255 254 254 254 253 253 253 253 253 253 253 253 253 253 253 254 254 253 253 253 253 253 253 254 254
252 252 252 252 253 254 255 255 255 254 253 253 253 253 254 254 254 254 253 253 252 253 253 253 253 253 253 254 254 254 254 254 254 253 254 254 254 254 254 253 253 253 253 252 252 252 252 252 252 252 252 252 253 254 253 253 252 251 251 251 252 252 252
252 252 252 252 252 253 254 255 255 255 255 253 253 253 253 253 253 253 253 252 252 253 253 253 253 253 253 253 253 253 253 253 253 253 253 253 253 253 253 252 252 252 252 251 251 251 252 252 252 252 252 253 253 252 252 251 251 251 251 251 251 251 251
252 252 252 252 253 253 254 254 255 255 255 254 254 253 254 253 253 252 252 252 252 252 252 252 252 252 252 252 252 252 252 252 252 252 252 252 252 252 252 252 251 251 251 250 251 251 251 251 252 252 253 253 252 251 250 251 250 251 251 252 252 252 252
252 252 252 252 253 253 253 253 254 254 254 255 255 254 254 253 253 253 253 253 253 253 252 252 252 252 252 252 252 252 252 252 252 252 252 252 252 252 252 252 252 251 251 251 251 251 251 252 252 253 252 251 251 250 251 251 250 250 250 251 252 251 251
252 252 252 252 252 252 252 252 253 253 253 254 253 253 253 253 252 252 253 252 252 253 252 252 252 252 253 252 252 252 252 252 252 252 252 252 252 252 252 252 252 252 251 251 251 251 251 251 251 250 250 250 250 250 250 250 250 249 249 250 250 249 250
252 252 252 252 252 251 251 251 251 253 254 253 253 252 251 251 252 252 252 252 252 252 252 252 252 252 252 252 251 251 251 252 252 252 252 252 252 252 252 251 251 250 250 251 250 250 250 250 250 250 250 250 249 249 249 250 249 249 249 249 250 249 250
251 252 252 251 252 252 251 250 252 253 253 252 252 253 252 252 253 253 252 252 252 252 251 251 250 251 251 251 251 250 250 251 251 251 251 251 252 252 251 251 251 250 250 250 250 250 250 249 249 249 249 249 248 249 249 249 249 248 249 248 248 248 249
252 252 252 251 251 252 252 252 252 252 252 252 253 253 253 252 252 252 252 252 251 250 250 249 249 250 250 250 250 250 250 250 250 250 250 250 251 251 251 251 251 251 250 250 250 249 249 249 249 248 249 248 248 248 248 249 249 249 248 248 248 248 249
252 252 252 252 252 251 252 252 252 252 252 252 252 252 252 252 252 252 252 252 251 249 249 250 249 249 250 250 250 250 250 250 250 250 250 250 250 250 251 250 250 251 251 250 250 249 249 249 249 249 248 248 248 248 248 248 248 248 248 248 248 248 248
252 252 252 252 252 252 252 252 252 252 252 252 252 252 252 252 252 251 251 251 250 249 249 250 250 250 250 250 249 250 250 250 250 250 250 250 250 249 250 251 251 251 250 250 250 249 249 249 249 249 248 248 248 247 247 247 247 248 248 248 247 248 248
252 252 251 251 252 251 251 251 251 251 251 251 251 251 251 251 251 252 252 251 250 250 249 250 250 250 250 250 250 250 250 250 250 250 250 250 250 250 250 251 251 251 250 250 250 249 249 249 249 248 248 248 248 248 247 247 247 247 247 247 247 247 248
251 252 252 251 251 251 251 251 251 251 251 251 251 251 251 251 250 250 250 251 251 250 250 250 249 249 249 250 249 250 250 249 250 250 250 250 250 250 250 250 250 250 250 250 250 249 249 249 248 248 248 248 247 247 247 247 247 247 247 246 247 247 247
250 251 251 251 251 251 251 251 251 251 251 251 251 251 251 249 249 249 250 250 250 250 250 250 250 250 250 250 250 250 250 250 250 250 250 250 250 250 250 250 250 250 250 250 250 249 249 249 248 248 248 248 247 247 246 246 246 247 247 246 246 247 247
Wind_Speed
8 8 7 8 8 8 8 8 8 7 7 7 7 8 8 9 9 9 9 8 9 9 8 9 10 10 10 10 10 9 9 9 10 10 10 10 11 11 11 12 14 17 21 19 12 15 15 15 19 17 16 18 16 15 15 16 16 17 15 15 14 14 20
7 7 8 8 8 8 8 8 8 8 7 7 8 9 8 8 9 9 10 9 10 9 8 9 10 11 11 10 10 11 11 10 10 10 10 11 11 11 12 11 13 16 17 22 17 15 14 14 16 17 15 15 18 16 15 17 16 14 14 14 14 13 13
8 8 8 8 8 8 8 8 8 7 7 8 9 9 9 10 10 10 10 10 11 10 10 10 10 11 10 9 10 11 10 10 10 10 10 11 10 12 12 12 13 14 18 19 19 15 16 13 15 16 17 16 15 16 16 17 15 14 13 13 13 13 13
8 8 8 8 8 9 9 8 8 8 8 9 9 9 10 10 11 10 11 11 11 11 10 11 10 10 10 11 12 11 10 10 10 9 10 11 11 12 13 13 13 14 15 16 18 16 15 15 15 15 15 15 15 15 15 13 14 14 14 14 12 12 12
8 8 8 8 8 9 9 9 9 9 9 8 8 9 10 10 11 11 11 12 12 12 12 12 12 12 11 12 12 11 10 10 11 10 11 11 11 12 13 13 13 14 14 16 17 17 14 15 15 15 15 14 14 14 13 14 14 14 13 13 12 12 11
8 7 8 8 9 9 9 9 9 9 9 9 9 9 10 10 11 11 12 13 12 13 12 12 12 12 13 12 12 11 11 10 10 10 11 13 13 13 13 13 13 13 14 14 16 16 17 14 15 15 12 13 13 13 14 14 13 13 12 12 12 11 11
8 8 8 9 9 9 9 9 9 9 9 10 10 10 11 12 12 12 12 13 14 13 14 14 14 13 13 13 11 10 10 10 10 10 12 12 12 12 12 13 13 12 13 13 15 15 14 15 14 13 15 12 12 13 13 13 14 13 12 11 12 14 12
8 8 8 9 9 9 9 9 10 10 10 10 10 10 11 13 13 12 12 13 14 15 14 14 14 14 14 12 9 10 10 10 11 11 12 11 11 12 12 13 13 12 12 12 13 13 14 12 14 12 12 11 12 11 11 10 13 15 15 14 12 12 13
9 9 10 10 9 10 9 10 10 9 8 9 10 11 12 13 13 14 14 13 14 15 14 15 15 15 12 11 14 16 15 15 15 13 13 13 12 12 12 13 13 12 12 12 12 14 12 12 12 12 12 12 11 11 13 13 14 14 14 14 14 13 11
9 9 10 11 11 10 9 9 9 11 16 16 14 14 13 13 13 13 13 13 13 15 16 17 15 13 14 16 18 18 19 20 20 20 16 14 12 13 13 13 13 13 12 12 13 13 12 13 12 12 12 13 13 12 13 14 13 14 14 15 14 13 10
9 9 9 10 11 12 11 9 10 16 19 22 24 18 14 13 13 13 14 15 16 16 15 14 13 11 13 14 17 16 20 19 21 21 21 22 22 19 15 14 14 14 13 13 13 12 12 13 14 13 12 13 13 12 13 13 13 13 13 13 14 16 14
10 11 10 10 10 11 11 11 14 19 22 23 24 22 16 14 13 13 13 14 15 15 15 13 10 12 12 12 12 12 12 17 21 21 21 21 21 21 23 22 18 16 14 14 14 14 13 13 14 13 12 12 12 13 14 14 14 13 13 13 13 13 15
11 11 11 10 11 13 11 12 15 20 23 23 24 24 21 14 14 14 15 14 15 15 15 13 13 13 13 12 16 14 14 14 12 16 20 21 22 23 25 24 26 26 20 15 16 16 16 14 13 14 13 12 13 14 16 15 13 13 12 11 13 13 16
12 11 11 13 13 13 12 12 14 20 23 24 24 24 21 15 16 15 16 16 16 15 16 15 13 13 13 13 13 12 12 12 12 12 12 13 13 14 17 21 24 25 26 23 18 16 17 15 13 15 15 16 16 15 14 13 14 12 11 12 13 16 16
10 10 10 11 12 14 15 12 15 20 23 23 23 23 21 15 13 14 15 15 15 15 15 14 14 15 16 15 14 12 13 11 11 11 12 13 14 14 14 14 14 14 13 14 14 15 16 16 15 15 15 15 14 14 11 11 11 11 12 13 15 14 13
10 11 11 12 13 14 16 13 16 18 21 22 22 23 15 13 14 14 15 15 15 15 14 14 14 13 14 14 14 16 18 17 13 13 14 14 15 15 14 14 15 19 19 17 15 15 16 16 17 20 17 14 12 12 12 9 9 10 11 12 13 13 10
10 10 11 12 11 13 16 15 14 14 18 20 21 18 12 13 13 13 14 15 14 14 15 15 14 14 14 14 14 15 16 18 18 16 17 16 16 15 14 15 13 19 24 26 27 28 29 27 24 19 19 20 22 17 12 9 9 9 7 10 12 12 10
12 11 10 12 13 10 12 15 15 16 19 21 22 18 14 12 12 14 14 15 14 14 14 15 20 18 15 14 15 17 20 21 18 17 18 17 17 20 18 16 12 10 12 20 24 27 28 27 27 28 27 28 25 21 13 10 10 9 8 11 10 12 11
11 12 10 10 12 14 17 15 16 17 17 20 21 17 12 12 12 14 14 13 14 13 13 14 15 20 19 18 17 20 22 22 19 17 17 17 17 19 19 16 14 15 15 14 14 13 13 15 18 16 15 15 19 17 17 11 10 9 9 10 11 11 10
13 14 13 12 15 13 12 13 14 14 18 20 22 21 13 11 12 14 14 13 13 14 14 13 13 14 18 20 21 21 22 22 22 20 18 16 16 17 19 13 13 13 13 15 14 14 14 15 13 11 11 12 12 13 14 12 11 10 9 10 11 11 10
13 14 16 13 11 11 12 11 12 14 18 19 19 21 18 11 12 13 13 13 14 14 14 14 13 13 17 18 18 19 21 23 23 22 18 17 17 17 17 18 16 17 19 16 15 14 13 12 11 10 10 10 10 10 11 10 10 9 9 10 11 11 11
12 14 15 12 12 12 12 11 14 12 14 17 18 19 20 14 13 13 13 14 14 14 13 14 13 13 14 18 18 20 22 25 24 25 17 17 22 24 24 18 15 14 13 14 14 13 13 11 10 10 10 10 10 11 10 10 8 8 8 10 10 11 12
12 12 12 12 11 10 10 10 9 14 13 15 17 18 18 20 17 20 15 15 16 14 15 14 14 15 19 20 22 22 24 24 26 23 18 25 25 25 25 22 16 14 14 13 13 13 14 13 11 10 10 10 10 10 9 8 8 8 8 9 10 11 12
8 9 11 12 12 11 10 8 8 10 13 12 14 16 18 19 20 20 15 14 15 15 15 15 15 16 22 24 26 28 27 26 25 20 26 26 27 26 24 16 15 14 13 13 13 13 13 13 11 10 10 10 10 9 8 7 8 10 11 11 9 10 11
8 9 11 11 12 12 12 10 9 9 9 12 12 15 17 18 19 19 20 16 15 15 15 18 25 28 29 29 30 31 30 26 25 27 26 27 26 24 15 14 13 13 12 13 13 13 13 12 11 10 10 9 9 9 8 8 9 9 10 10 11 10 11
10 10 11 12 12 12 12 11 11 9 8 6 8 9 13 17 17 18 19 20 19 24 28 29 29 31 30 27 24 18 15 14 14 19 22 23 22 15 14 13 12 12 13 13 13 12 12 12 11 10 9 8 6 6 9 8 9 9 8 8 9 9 9
10 10 10 11 11 11 12 12 11 9 8 7 9 12 13 12 13 15 17 14 12 14 14 16 16 15 19 21 27 27 27 25 23 19 17 14 13 12 12 12 12 12 12 12 12 12 12 11 11 10 9 8 7 9 8 7 8 8 9 8 8 8 10
10 10 10 11 12 13 14 13 10 9 10 12 13 14 13 13 13 13 12 13 13 14 16 17 19 20 16 14 13 12 11 10 11 11 12 11 11 11 11 13 17 17 14 13 13 13 12 12 11 11 10 9 9 9 8 7 8 8 8 7 7 8 10
12 11 9 12 15 14 14 14 13 11 12 17 21 20 17 15 13 14 14 16 22 20 18 16 15 14 14 13 13 13 12 12 11 11 11 11 11 10 11 11 10 11 11 11 11 12 11 12 11 11 10 9 9 9 8 7 8 8 8 7 7 9 9
14 12 12 14 14 13 14 14 15 21 28 28 27 26 26 24 25 24 21 23 27 21 17 15 14 13 13 13 12 13 12 12 11 11 11 11 11 11 11 10 10 11 11 10 11 12 12 12 11 12 11 9 9 8 8 8 8 8 8 7 8 9 9
25 26 24 18 17 17 23 27 28 28 27 26 25 25 26 26 26 26 25 24 19 15 14 14 13 13 12 12 12 12 12 12 12 12 12 12 11 11 11 11 11 10 9 9 10 11 11 11 11 12 11 11 10 9 8 7 7 8 8 8 8 8 9
22 23 22 23 22 20 16 19 22 23 24 26 27 26 26 26 26 25 25 23 22 16 14 13 13 13 12 12 12 12 12 12 12 12 12 12 12 12 11 11 11 10 10 10 10 10 10 10 10 11 11 10 10 8 9 8 8 8 8 8 8 9 9
21 22 22 23 24 25 23 24 25 27 27 26 25 25 24 25 26 24 23 22 14 12 13 12 12 12 12 12 12 12 12 12 12 12 12 11 12 12 11 11 12 12 12 12 11 11 11 10 10 10 10 10 9 9 9 9 9 8 8 8 8 8 8
12 14 16 18 20 21 22 23 24 24 24 25 24 24 24 22 19 22 23 18 13 11 12 11 11 12 12 12 12 12 12 12 12 11 12 12 12 12 12 12 12 11 11 11 10 10 10 10 10 9 10 10 10 9 9 9 8 8 8 8 8 8 8
13 10 11 13 14 17 21 22 22 23 23 23 22 22 22 22 15 12 9 8 8 10 11 11 11 12 12 11 12 12 12 12 12 12 12 12 12 11 11 11 11 11 11 11 11 11 10 9 10 10 10 10 9 9 9 9 8 8 8 8 8 8 8
15 15 17 19 18 19 20 20 21 21 21 21 22 21 20 13 11 10 10 9 9 9 10 11 11 11 12 11 12 12 12 12 12 12 12 11 12 12 12 11 11 10 10 10 10 11 11 10 10 10 9 10 10 11 10 10 10 9 9 9 8 8 8
Wind_Direction
313 314 314 314 312 310 309 311 310 312 308 305 303 300 299 296 293 290 289 294 293 290 287 289 285 280 279 282 283 287 288 290 292 290 287 288 289 287 288 290 290 290 293 296 298 301 306 307 305 303 309 305 308 307 305 306 308 307 307 309 312 311 314
309 308 309 308 306 305 304 302 302 304 299 295 298 296 296 291 291 285 285 287 289 286 286 285 281 277 276 277 277 278 280 284 287 288 288 285 285 287 289 288 290 291 291 296 302 302 304 303 301 300 309 306 307 305 305 307 306 304 307 309 310 307 312
302 300 302 300 299 299 299 297 297 295 292 289 287 289 289 292 291 286 285 285 281 280 282 279 274 275 278 276 280 281 279 282 283 282 281 285 285 286 286 286 286 290 292 294 296 300 302 303 301 301 305 305 299 300 303 303 305 308 308 306 304 305 308
294 294 292 291 290 291 292 291 288 289 286 284 283 284 285 287 287 282 279 274 274 274 271 269 271 271 274 276 277 277 278 281 281 279 282 285 284 284 285 287 288 285 289 292 295 299 300 300 300 300 300 298 297 299 302 303 305 306 305 305 306 305 307
290 286 286 284 285 289 289 287 285 283 285 283 282 282 283 282 282 279 276 272 270 268 266 265 261 266 272 274 272 269 271 280 281 277 280 281 284 284 285 286 286 288 287 289 290 294 293 294 294 294 295 296 299 303 302 305 305 306 307 309 310 308 309
286 284 283 282 284 282 281 282 280 278 279 279 279 279 277 279 278 275 275 273 270 267 264 262 260 260 266 268 264 265 272 274 268 271 273 275 276 280 283 281 283 284 285 287 288 291 294 291 294 296 292 297 298 302 306 307 307 306 307 314 314 311 313
282 283 281 281 280 279 279 282 280 277 275 273 273 273 274 274 271 268 270 269 266 265 267 263 260 263 265 264 255 253 260 265 271 271 273 275 278 281 281 282 284 286 286 284 287 287 285 290 290 292 297 300 300 300 302 309 313 311 313 313 314 312 312
285 286 284 281 278 277 279 278 278 274 271 271 270 269 272 271 267 265 260 263 266 267 261 258 264 268 265 253 244 254 258 262 270 278 278 279 281 282 284 284 285 286 286 287 288 288 292 291 294 293 290 297 301 304 307 314 315 310 312 315 315 313 314
285 287 286 283 278 277 277 275 271 267 264 267 265 267 268 261 257 255 258 257 264 269 269 271 274 269 252 243 253 253 258 262 268 276 278 278 280 281 280 280 282 284 286 287 288 289 288 289 291 294 300 304 304 309 311 313 309 304 306 311 311 308 311
282 279 278 280 279 276 271 269 266 262 262 262 266 265 260 256 253 253 252 255 258 268 273 272 267 258 244 251 254 256 262 267 269 268 266 272 277 278 278 277 279 281 283 285 285 284 289 289 288 295 299 299 299 305 306 305 307 307 309 309 303 302 305
278 277 277 277 280 283 277 266 260 261 269 274 276 275 272 266 267 266 267 269 274 276 273 270 263 257 257 251 253 257 261 265 267 266 266 265 266 267 268 274 275 274 276 279 279 280 281 282 286 289 294 292 299 304 303 304 306 304 305 306 309 309 311
279 278 274 274 274 273 270 269 266 269 277 281 283 284 281 279 277 276 274 274 274 275 272 264 258 266 264 259 249 251 256 263 266 263 262 263 265 265 263 260 263 271 274 271 275 276 273 279 279 287 289 292 297 301 301 300 299 298 298 300 301 304 305
283 281 280 273 272 274 270 268 271 274 280 283 285 285 285 280 278 279 278 277 276 275 270 265 268 269 268 263 262 258 259 256 254 259 262 265 266 265 262 262 261 260 261 267 267 269 271 269 279 281 280 284 291 291 292 296 295 299 299 298 298 299 303
275 272 275 277 275 274 270 264 260 270 279 283 285 286 288 286 285 283 281 278 274 271 269 267 262 265 265 266 265 261 253 248 250 258 263 262 260 259 258 258 258 258 258 257 258 262 264 266 269 273 279 281 278 280 283 294 299 303 300 296 293 297 292
283 277 274 276 273 277 279 266 261 271 279 284 288 291 295 293 291 285 279 275 270 265 262 261 261 261 263 264 259 256 251 249 246 255 260 262 262 260 257 253 249 246 245 246 247 249 253 258 257 259 261 264 270 272 287 299 302 308 300 294 289 278 274
274 275 274 275 277 277 278 274 267 274 282 288 293 297 297 292 289 284 278 275 270 265 261 260 258 259 259 258 259 256 254 256 258 260 261 262 264 266 264 257 247 245 247 245 244 243 246 245 246 248 251 253 267 285 293 302 303 293 287 290 293 291 298
279 277 278 278 274 274 280 280 276 276 285 292 296 300 295 290 284 279 277 273 272 268 264 259 255 254 258 261 259 256 255 259 261 261 261 261 263 265 267 267 262 258 259 261 262 262 263 265 267 270 273 286 296 300 316 316 298 286 301 298 293 293 295
286 279 272 271 272 262 272 281 283 283 289 293 296 297 293 287 281 278 275 276 271 269 267 263 261 257 256 256 260 263 266 267 264 261 259 259 259 261 263 267 264 264 261 258 261 265 270 275 279 283 287 289 292 300 307 298 284 294 300 285 281 284 291
283 280 274 265 265 273 276 277 282 284 286 290 295 299 293 286 283 280 278 280 281 277 274 276 271 267 262 260 261 266 269 271 268 267 266 267 269 269 267 268 277 276 273 270 264 256 254 258 258 260 262 267 272 275 277 265 262 275 271 272 274 276 286
286 285 282 281 284 274 256 261 271 277 280 288 294 297 296 288 281 278 278 277 279 283 280 277 278 274 270 266 265 267 272 276 274 270 268 266 264 265 267 272 271 268 273 277 267 265 264 262 257 247 250 253 259 266 264 258 251 248 253 261 264 263 261
279 280 282 280 268 264 262 248 260 273 278 282 286 288 290 283 275 276 279 282 282 280 282 282 279 281 282 278 274 275 274 275 276 274 272 267 264 264 272 277 276 276 277 277 278 277 269 261 254 251 248 250 252 263 266 257 247 246 247 251 254 258 258
277 281 283 280 274 262 258 249 232 260 267 272 278 282 285 281 275 273 280 281 276 278 277 278 281 282 284 283 279 280 281 281 281 281 279 273 275 278 282 285 287 286 282 276 273 272 269 264 261 261 261 260 264 273 272 258 253 245 246 248 247 252 258
274 276 279 280 279 273 262 253 245 234 248 258 265 274 279 277 276 276 275 274 277 275 277 279 279 281 283 285 285 286 288 289 288 284 275 275 275 276 277 278 275 274 272 269 268 268 265 263 261 263 264 266 269 274 265 256 265 269 259 255 255 259 257
274 277 280 283 287 286 285 277 268 255 237 243 254 264 276 281 280 277 273 273 275 279 278 281 280 281 284 286 288 288 288 287 285 281 279 279 278 279 278 275 273 269 267 268 266 263 263 261 260 262 263 265 272 271 269 266 273 272 266 255 252 252 255
279 275 280 283 283 289 293 291 288 288 268 239 240 260 270 276 282 280 276 276 275 274 276 277 279 283 284 285 286 285 285 283 277 273 271 271 271 272 270 268 264 264 264 263 261 260 262 264 264 261 261 265 269 273 273 267 265 261 259 257 254 252 251
275 277 279 280 283 286 291 296 299 299 298 291 268 277 297 299 289 285 280 274 275 274 273 274 275 276 279 281 280 281 279 277 276 275 274 274 272 268 264 260 259 258 259 258 261 261 264 270 273 267 262 261 259 260 266 266 269 278 273 266 260 255 247
273 276 280 283 288 292 296 298 300 302 307 307 312 319 314 309 305 300 297 293 288 290 288 286 282 278 276 273 273 271 269 268 271 273 271 268 263 260 257 254 251 253 255 260 263 268 273 278 278 276 262 254 257 263 265 259 262 268 271 268 266 264 264
281 280 286 293 295 301 303 299 299 303 311 315 316 312 310 307 304 303 304 300 297 297 298 297 294 292 290 286 280 274 275 275 271 268 269 267 266 264 257 256 257 257 257 259 262 267 272 272 274 267 260 261 260 260 263 258 255 258 265 261 260 255 256
279 280 278 292 295 295 295 294 295 298 306 302 300 299 301 303 301 301 299 297 299 300 298 296 295 294 294 292 289 289 288 290 291 290 286 284 275 269 268 262 252 251 253 257 261 264 264 268 271 272 269 261 256 257 258 254 254 252 253 261 252 251 257
262 270 285 287 280 278 279 281 285 290 292 291 292 293 293 293 295 295 295 297 300 299 296 295 294 292 291 290 290 289 289 289 292 292 291 287 286 284 281 271 262 257 258 261 263 265 267 267 270 273 272 267 260 262 258 251 243 254 252 251 249 248 249
259 261 261 262 277 278 274 277 280 284 287 290 293 296 296 296 296 297 297 300 303 298 291 292 289 287 284 284 287 287 288 289 289 288 288 289 288 285 281 280 275 269 262 259 260 261 261 263 264 269 271 269 265 264 262 261 248 245 246 246 247 248 252
264 265 266 264 264 272 283 281 282 284 289 293 294 295 296 296 296 296 297 296 295 289 286 282 283 285 285 287 287 286 287 287 287 286 286 288 288 286 283 282 279 280 277 270 271 267 263 261 263 266 269 268 267 262 262 258 256 248 248 247 245 245 248
267 266 266 269 273 271 272 280 285 286 289 291 292 294 294 295 295 294 293 294 288 277 280 279 280 282 284 285 284 287 287 286 285 286 285 284 284 286 286 283 283 283 276 270 266 269 271 271 269 269 269 269 266 263 262 259 256 252 248 249 252 252 243
270 266 263 261 263 267 273 279 283 285 286 289 291 292 293 295 296 293 288 279 272 272 273 277 280 281 283 282 283 284 286 284 284 283 284 283 281 282 284 285 286 281 276 272 272 269 269 265 264 265 267 269 271 267 264 262 256 251 247 249 249 253 256
307 290 281 288 287 281 282 282 283 284 285 286 289 292 294 298 296 293 292 281 267 269 273 276 278 280 282 282 282 282 282 283 282 283 283 282 283 282 282 285 284 281 280 277 274 272 270 267 267 268 266 267 269 268 264 263 261 255 248 248 250 254 258
301 303 305 300 290 284 286 286 283 280 283 287 289 290 294 295 288 288 285 282 279 273 273 273 276 278 279 280 280 281 281 281 282 280 280 281 282 281 281 281 281 280 279 277 278 278 274 268 263 262 261 263 263 262 260 260 259 259 258 251 249 250 255